Sheringham Point, British Columbia

4:46 PM PDT on August 23, 2017 (GMT -0700)
Sheringham Point

Weather History for CWSP - April, 2014

Change the Weather History Date:

Saturday, April 5, 2014

  Actual Average Record
Temperature  
Mean Temperature 46 °F -  
Max Temperature 48 °F - - ()
Min Temperature 44 °F - - ()
Degree Days  
Heating Degree Days 19    
Moisture  
Dew Point 42 °F    
Average Humidity 84    
Maximum Humidity 97    
Minimum Humidity 65    
Precipitation  
Precipitation 0.08 in - - ()
Sea Level Pressure  
Sea Level Pressure 29.98 in    
Wind  
Wind Speed 7 mph ()    
Max Wind Speed 29 mph    
Max Gust Speed 37 mph    
T = Trace of Precipitation, MM = Missing Value Source: Averaged Metar Reports

Daily Weather History Graph

Daily Weather History Graph

Search for Another Location

Airport or City:

Trip Planner

Search our weather history database for the weather conditions in past years. The results will help you decide how hot, cold, wet, or windy it might be!

Date:

Astronomy

Apr. 05, 2014 Rise Set
Actual Time 6:45 AM PDT 7:52 PM PDT
Civil Twilight 6:13 AM PDT 8:24 PM PDT
Nautical Twilight 5:34 AM PDT 9:02 PM PDT
Astronomical Twilight 4:53 AM PDT 9:44 PM PDT
Moon 10:41 AM PDT (4/5) 1:23 AM PDT (4/5)
Length of Visible Light 14h 10m
Length of Day
13h 06m
Waxing Crescent, 35% of the Moon is Illuminated
Apr 5
Waxing Crescent
Apr 7
First Quarter
Apr 15
Full
Apr 22
Last Quarter
Apr 28
New

Hourly Weather History & Observations

Time (PDT) Temp. Windchill Dew Point Humidity Pressure Visibility Wind Dir Wind Speed Gust Speed Precip Events Conditions
1:00 AM 46.4 °F - 37.9 °F 72% 29.95 in - Calm Calm - N/A   Unknown
2:00 AM 46.6 °F - 37.6 °F 71% 29.95 in - East 4.6 mph - N/A   Unknown
3:00 AM 46.4 °F 44.3 °F 37.6 °F 71% 29.95 in - East 4.6 mph - N/A   Unknown
4:00 AM 46.4 °F - 37.8 °F 72% 29.96 in - ESE 1.2 mph - N/A   Unknown
5:00 AM 46 °F - 38 °F 65% 29.97 in - East 2.3 mph - -  
5:00 AM 46.0 °F - 37.9 °F 73% 29.97 in - East 2.3 mph - N/A   Unknown
6:00 AM 45.7 °F - 39.6 °F 79% 29.96 in - ENE 2.3 mph - N/A   Unknown
7:00 AM 46.6 °F - 39.6 °F 77% 29.96 in - ENE 4.6 mph - N/A   Unknown
8:00 AM 47.1 °F - 40.3 °F 77% 29.97 in - East 4.6 mph - N/A   Unknown
9:00 AM 45.5 °F 41.3 °F 41.4 °F 85% 29.97 in - East 8.1 mph - N/A   Unknown
10:00 AM 47.1 °F - 42.8 °F 85% 29.99 in - ESE 6.9 mph - N/A   Unknown
11:00 AM 47 °F - 44 °F 83% 29.99 in - ESE 6.9 mph - -  
11:00 AM 47.3 °F - 43.5 °F 87% 29.99 in - ESE 6.9 mph - N/A   Unknown
12:00 PM 47.8 °F - 44.1 °F 87% 29.98 in - East 9.2 mph - N/A   Unknown
1:00 PM 47.5 °F - 43.9 °F 87% 29.99 in - ESE 9.2 mph - 0.02 in   Unknown
2:00 PM 45.5 °F 41.8 °F 44.8 °F 97% 29.97 in - East 6.9 mph - 0.01 in   Unknown
3:00 PM 47.8 °F - 45.7 °F 92% 29.95 in - ESE 10.4 mph - 0.05 in   Unknown
4:00 PM 48.0 °F - 45.9 °F 92% 29.94 in - ESE 10.4 mph - 0.01 in   Unknown
5:00 PM 48 °F - 46 °F 89% 29.96 in - South 3.5 mph - -  
5:00 PM 47.8 °F - 45.9 °F 93% 29.96 in - South 3.5 mph - 0.02 in   Unknown
6:00 PM 47.5 °F - 45.5 °F 93% 29.95 in - West 25.3 mph 36.8 mph 0.02 in   Unknown
7:00 PM 48.2 °F - 45.7 °F 91% 29.96 in - WNW 24.2 mph - 0.01 in   Unknown
8:00 PM 48.4 °F - 43.5 °F 83% 29.98 in - West 24.2 mph - N/A   Unknown
9:00 PM 48.2 °F - 43.3 °F 83% 30.00 in - West 25.3 mph - N/A   Unknown
10:00 PM 46.0 °F 36.9 °F 44.1 °F 93% 30.04 in - West 28.8 mph - N/A   Unknown
11:00 PM 47 °F - 45 °F 89% 30.06 in - West 23.0 mph - -  
11:00 PM 46.9 °F - 44.8 °F 92% 30.06 in - West 23.0 mph - N/A   Unknown